Change the Weather History Date:

Monday, May 27, 2013

  Actual Average Record
Temperature  
Mean Temperature 55 °F -  
Max Temperature 69 °F 65 °F 84 °F (2014)
Min Temperature 41 °F 47 °F 39 °F (1997)
Degree Days  
Heating Degree Days 10    
Growing Degree Days 5 (Base 50)    
Moisture  
Dew Point 38 °F    
Average Humidity 59    
Maximum Humidity 81    
Minimum Humidity 31    
Precipitation  
Precipitation 0.00 in - - ()
Sea Level Pressure  
Sea Level Pressure 30.18 in    
Wind  
Wind Speed 2 mph (WNW)    
Max Wind Speed 14 mph    
Max Gust Speed 23 mph    
Visibility 10 miles    
Events      
Averages and records for this station are not official NWS values.
T = Trace of Precipitation, MM = Missing Value Source: NWS Daily Summary

Daily Weather History Graph

Daily Weather History Graph

Search for Another Location

Airport or City:

Trip Planner

Search our weather history database for the weather conditions in past years. The results will help you decide how hot, cold, wet, or windy it might be!

Date:

Astronomy

May. 27, 2013 Rise Set
Actual Time 5:23 AM EDT 8:16 PM EDT
Civil Twilight 4:50 AM EDT 8:49 PM EDT
Nautical Twilight 4:09 AM EDT 9:30 PM EDT
Astronomical Twilight 3:21 AM EDT 10:18 PM EDT
Moon 10:52 PM EDT (5/27) 7:58 AM EDT (5/27)
Length of Visible Light 15h 58m
Length of Day
14h 52m
Waning Gibbous, 91% of the Moon is Illuminated
May 27
Waning Gibbous
May 31
Last Quarter
Jun 8
New
Jun 16
First Quarter
Jun 23
Full

Hourly Weather History & Observations

Time (EDT) Temp. Windchill Dew Point Humidity Pressure Visibility Wind Dir Wind Speed Gust Speed Precip Events Conditions
12:15 AM 41.0 °F - 35.6 °F 81% 30.17 in 10.0 mi Calm Calm - N/A   Clear
12:35 AM 42.8 °F - 37.4 °F 81% 30.18 in 10.0 mi Calm Calm - N/A   Clear
12:55 AM 44.6 °F - 35.6 °F 71% 30.17 in 10.0 mi Calm Calm - N/A   Clear
1:15 AM 44.6 °F - 35.6 °F 71% 30.18 in 10.0 mi Calm Calm - N/A   Clear
1:55 AM 46.4 °F 45.2 °F 35.6 °F 66% 30.18 in 10.0 mi West 3.5 mph - N/A   Clear
2:15 AM 46.4 °F - 33.8 °F 62% 30.18 in 10.0 mi Calm Calm - N/A   Clear
2:35 AM 46.4 °F 45.2 °F 33.8 °F 62% 30.18 in 10.0 mi West 3.5 mph - N/A   Clear
2:55 AM 44.6 °F 43.1 °F 33.8 °F 66% 30.19 in 10.0 mi West 3.5 mph - N/A   Clear
3:15 AM 46.4 °F 44.3 °F 33.8 °F 62% 30.18 in 10.0 mi West 4.6 mph - N/A   Clear
3:35 AM 46.4 °F 45.2 °F 33.8 °F 62% 30.19 in 10.0 mi West 3.5 mph - N/A   Clear
3:55 AM 44.6 °F 43.1 °F 33.8 °F 66% 30.18 in 10.0 mi WNW 3.5 mph - N/A   Clear
4:15 AM 44.6 °F - 33.8 °F 66% 30.18 in 10.0 mi Calm Calm - N/A   Clear
4:35 AM 44.6 °F - 33.8 °F 66% 30.18 in 10.0 mi Calm Calm - N/A   Clear
4:55 AM 42.8 °F - 32.0 °F 66% 30.18 in 10.0 mi Calm Calm - N/A   Clear
5:15 AM 44.6 °F 43.1 °F 33.8 °F 66% 30.19 in 10.0 mi West 3.5 mph - N/A   Clear
5:35 AM 42.8 °F 41.1 °F 33.8 °F 70% 30.19 in 10.0 mi NNW 3.5 mph - N/A   Clear
5:45 AM 42.8 °F 39.3 °F 33.8 °F 70% 30.19 in 10.0 mi NNW 5.8 mph - N/A   Clear
6:45 AM 44.6 °F - 35.6 °F 71% 30.21 in 10.0 mi Calm Calm - N/A   Clear
7:45 AM 50.0 °F - 35.6 °F 58% 30.23 in 10.0 mi Calm Calm - N/A   Clear
8:45 AM 53.6 °F - 39.2 °F 58% 30.21 in 10.0 mi WNW 5.8 mph - N/A   Clear
9:45 AM 57.2 °F - 39.2 °F 51% 30.21 in 10.0 mi NW 6.9 mph - N/A   Clear
10:45 AM 62.6 °F - 39.2 °F 42% 30.21 in 10.0 mi NW 6.9 mph 17.3 mph N/A   Clear
11:45 AM 64.4 °F - 37.4 °F 37% 30.20 in 10.0 mi NNW 13.8 mph 23.0 mph N/A   Clear
12:45 PM 64.4 °F - 37.4 °F 37% 30.18 in 10.0 mi West 8.1 mph - N/A   Clear
1:45 PM 66.2 °F - 39.2 °F 37% 30.18 in 10.0 mi West 5.8 mph 17.3 mph N/A   Clear
2:45 PM 68.0 °F - 39.2 °F 35% 30.16 in 10.0 mi West 6.9 mph - N/A   Clear
3:45 PM 69.8 °F - 41.0 °F 35% 30.15 in 10.0 mi West 6.9 mph - N/A   Clear
4:45 PM 69.8 °F - 37.4 °F 31% 30.14 in 10.0 mi West 6.9 mph - N/A   Clear
5:45 PM 69.8 °F - 37.4 °F 31% 30.14 in 10.0 mi West 4.6 mph - N/A   Clear
6:45 PM 69.8 °F - 37.4 °F 31% 30.14 in 10.0 mi West 5.8 mph - N/A   Clear
7:45 PM 68.0 °F - 37.4 °F 33% 30.14 in 10.0 mi Calm Calm - N/A   Clear
8:55 PM 57.2 °F - 41.0 °F 55% 30.15 in 10.0 mi South 3.5 mph - N/A   Clear
9:15 PM 57.2 °F - 42.8 °F 59% 30.15 in 10.0 mi SE 4.6 mph - N/A   Clear
9:35 PM 57.2 °F - 42.8 °F 59% 30.15 in 10.0 mi South 3.5 mph - N/A   Clear
9:55 PM 53.6 °F - 42.8 °F 67% 30.17 in 10.0 mi Calm Calm - N/A   Clear
10:15 PM 51.8 °F - 41.0 °F 67% 30.18 in 10.0 mi Calm Calm - N/A   Clear
10:35 PM 50.0 °F - 41.0 °F 71% 30.18 in 10.0 mi Calm Calm - N/A   Clear
10:55 PM 50.0 °F - 42.8 °F 76% 30.19 in 10.0 mi Calm Calm - N/A   Clear
11:15 PM 50.0 °F - 42.8 °F 76% 30.19 in 10.0 mi North 3.5 mph - N/A   Clear
11:35 PM 50.0 °F - 42.8 °F 76% 30.19 in 10.0 mi Calm Calm - N/A   Clear
11:55 PM 50.0 °F - 42.8 °F 76% 30.19 in 10.0 mi Calm Calm - N/A   Clear